CW1172 Weather Reports


Display with metric or nautical units.
time (UTC)temp
F
wind
direction
speed
MPH
gust
MPH
rain 1hr
in
rain 24hr
in
rain mn
in
humidity
%
barometer
mb
20260903033111 52 215 0.0 0.0 0.00 0.00 0.00 74 1008.8
20260903031556 52 280 0.0 0.0 0.00 0.00 0.00 73 1008.9
20260903030056 52 241 0.0 0.0 0.00 0.00 0.00 73 1008.9
20260903024554 52 203 0.0 0.0 0.00 0.00 0.00 72 1008.9
20260903023054 52 257 0.0 0.0 0.00 0.00 0.00 72 1008.9
20260903021604 53 234 0.0 0.0 0.00 0.00 0.00 72 1008.9
20260903020049 53 246 0.0 0.0 0.00 0.00 0.00 72 1008.9
20260903014550 53 232 0.0 0.0 0.00 0.00 0.00 72 1009.2
20260903013045 54 225 0.0 0.0 0.00 0.00 0.00 72 1009.2
20260903011546 54 272 0.0 0.0 0.00 0.00 0.00 73 1009.1
20260903010048 54 243 0.0 0.0 0.00 0.00 0.00 73 1009.2
20260903004555 54 280 0.0 0.0 0.00 0.00 0.00 72 1009.2
20260903003042 55 235 0.0 0.0 0.00 0.00 0.00 71 1009.3
20260903001542 55 209 0.0 0.0 0.00 0.00 0.00 71 1009.3
20260903000041 55 190 0.0 0.0 0.00 0.00 0.00 71 1009.3
20260902234540 55 221 0.0 0.0 0.00 0.00 0.00 72 1009.3
20260902233045 55 247 0.0 0.0 0.00 0.00 0.00 73 1009.4
20260902231549 56 242 0.0 0.0 0.00 0.00 0.00 74 1009.3
20260902230042 56 279 0.0 0.0 0.00 0.00 0.00 75 1009.1
20260902224541 56 259 0.0 0.0 0.00 0.00 0.00 76 1009.3
20260902223036 56 240 0.0 0.0 0.00 0.00 0.00 77 1009.3
20260902221534 56 230 0.0 0.0 0.00 0.00 0.00 77 1009.4
20260902220035 56 262 0.0 0.0 0.00 0.00 0.00 77 1009.4
20260902214531 56 239 0.0 0.0 0.00 0.00 0.02 76 1009.4
20260902213031 56 360 0.0 0.0 0.00 0.00 0.02 76 1009.4
20260902211532 57 225 0.0 0.0 0.00 0.00 0.02 76 1009.4
20260902210036 56 263 0.0 0.0 0.00 0.00 0.02 76 1009.3
20260902204540 57 227 0.0 0.0 0.00 0.00 0.02 75 1009.4
20260902203031 57 265 0.0 0.0 0.00 0.00 0.02 75 1009.5
20260902201532 57 360 0.0 0.0 0.00 0.00 0.02 76 1009.5
20260902200030 57 250 0.0 0.0 0.00 0.00 0.02 76 1009.7
20260902194529 57 283 0.0 0.0 0.00 0.00 0.02 76 1009.7
20260902193035 57 246 0.0 0.0 0.00 0.00 0.02 76 1009.6
20260902191534 57 229 0.0 0.0 0.00 0.00 0.02 76 1009.6
20260902190033 57 237 0.0 0.0 0.00 0.00 0.02 76 1009.6
20260902184534 58 180 0.0 0.0 0.00 0.00 0.02 75 1009.7
20260902183039 58 236 0.0 0.0 0.00 0.00 0.02 75 1009.6
20260902181527 58 202 0.0 0.0 0.00 0.00 0.02 74 1009.5
20260902180027 58 233 0.0 0.0 0.00 0.00 0.02 73 1009.6
20260902174526 59 265 0.0 0.0 0.00 0.00 0.02 75 1009.7
20260902173028 59 254 0.0 0.0 0.00 0.00 0.02 74 1009.6
20260902171527 60 266 0.0 0.0 0.00 0.00 0.02 73 1009.5
20260902170026 60 360 0.0 0.0 0.00 0.00 0.02 73 1009.6
20260902164526 61 317 0.0 0.0 0.00 0.00 0.02 71 1009.7
20260902163026 61 109 0.0 0.0 0.00 0.00 0.02 70 1009.6
20260902161526 63 360 0.0 0.0 0.00 0.00 0.02 69 1009.7
20260902160026 64 295 0.0 0.0 0.00 0.00 0.02 66 1009.7
20260902154532 63 210 0.0 0.0 0.00 0.00 0.02 65 1009.7
20260902153026 63 206 0.0 0.0 0.00 0.00 0.02 65 1009.7
20260902151526 63 360 0.0 0.0 0.00 0.00 0.02 68 1009.7
20260902150026 63 271 0.0 0.0 0.00 0.00 0.02 71 1009.7
20260902144524 63 283 0.0 0.0 0.00 0.00 0.02 70 1009.8
20260902143024 64 240 0.0 0.0 0.00 0.00 0.02 68 1009.9
20260902141526 65 296 0.0 0.0 0.00 0.00 0.02 67 1009.7
20260902140035 65 277 0.0 0.0 0.00 0.00 0.02 65 1009.7
20260902134527 64 307 0.0 0.0 0.00 0.00 0.02 67 1009.8
20260902133028 65 277 0.0 0.0 0.00 0.00 0.02 62 1009.8
20260902131529 65 244 0.0 0.0 0.00 0.00 0.02 60 1010.0
20260902130025 66 99 0.0 0.0 0.00 0.00 0.02 58 1009.9
20260902124531 66 237 0.0 0.0 0.00 0.00 0.02 60 1009.8
20260902123024 66 360 0.0 0.0 0.00 0.00 0.02 60 1009.9
20260902121524 66 360 0.0 0.0 0.00 0.00 0.02 59 1010.0
20260902120022 66 360 0.0 0.0 0.00 0.00 0.02 61 1010.0
20260902114523 67 360 0.0 0.0 0.00 0.00 0.02 61 1010.0
20260902113020 66 360 0.0 0.0 0.00 0.00 0.02 66 1010.1
20260902111520 66 360 0.0 0.0 0.00 0.00 0.02 63 1010.1
20260902110021 66 360 0.0 0.0 0.00 0.00 0.02 62 1010.2
20260902104520 66 272 0.0 0.0 0.00 0.00 0.02 63 1010.1
20260902103033 66 360 0.0 0.0 0.00 0.00 0.02 61 1010.2
20260902101528 65 316 0.0 0.0 0.00 0.00 0.02 60 1010.1
20260902100018 65 178 0.0 0.0 0.00 0.00 0.02 60 1010.1
20260902094517 65 285 0.0 0.0 0.00 0.00 0.02 58 1010.1
20260902093016 65 261 0.0 0.0 0.00 0.00 0.02 61 1010.1
20260902091516 65 355 0.0 0.0 0.00 0.00 0.02 60 1010.1
20260902090017 65 273 0.0 0.0 0.00 0.00 0.02 62 1009.9
20260902084521 64 287 0.0 0.0 0.00 0.00 0.02 61 1009.8
20260902083013 63 297 0.0 0.0 0.00 0.00 0.02 65 1009.7
20260902081513 64 320 0.0 0.0 0.00 0.00 0.02 66 1009.6
20260902080009 63 360 0.0 0.0 0.00 0.00 0.02 69 1009.6
20260902074506 62 206 0.0 0.0 0.00 0.00 0.02 73 1009.4
20260902073004 62 279 0.0 0.0 0.00 0.00 0.02 78 1009.2
20260902071502 62 268 0.0 0.0 0.00 0.00 0.02 81 1009.1
20260902070001 61 259 0.0 0.0 0.00 0.00 0.02 85 1009.0
20260902064619 61 257 0.0 0.0 0.00 0.00 0.02 87 1008.9
20260902063100 61 256 0.0 0.0 0.00 0.00 0.02 87 1008.9
20260902061558 60 360 0.0 0.0 0.00 0.00 0.02 89 1009.0
20260902060110 60 228 0.0 0.0 0.00 0.00 0.02 90 1008.9
20260902054559 60 213 0.0 0.0 0.00 0.00 0.02 90 1008.8
20260902053056 60 227 0.0 0.0 0.00 0.00 0.02 90 1008.8
20260902051556 60 259 0.0 0.0 0.00 0.00 0.02 91 1008.8
20260902050110 60 242 0.0 0.0 0.00 0.00 0.02 91 1008.8
20260902044607 59 211 0.0 0.0 0.00 0.00 0.02 91 1008.7
20260902043056 59 197 0.0 0.0 0.00 0.00 0.02 91 1008.7
20260902041553 59 204 0.0 0.0 0.00 0.00 0.02 91 1008.8
20260902040056 59 222 0.0 0.0 0.00 0.00 0.02 91 1008.8
20260902034601 59 230 0.0 0.0 0.00 0.00 0.02 91 1009.0